{"data":{"norad_id":62836,"intl_designator":"2025-019H","name":"STARLINK-11533 [DTC]","alt_names":[],"object_type":"PAYLOAD","status":"ACTIVE","operator":null,"country":"US","launch_date":"2025-01-27","launch_site_code":"AFETR","launch_vehicle":null,"mission":null,"orbit_class":"UNKNOWN","rcs_meters":null,"size_class":null,"mass_kg":null,"dimensions":null,"purposes":["comms"],"wikipedia_slug":null,"has_3d_model":false,"image_url":null,"decayed_at":null,"tle_current":{"epoch":"2026-05-25T04:54:30.583296Z","epoch_age_seconds":53851,"freshness":"FRESH","line1":"1 62836U 25019H   26145.20452064  .00175274  00000+0  13370-2 0  9994","line2":"2 62836  42.9993 204.8543 0001198 266.9258  93.1473 15.70908380 75916","mean_motion":15.7090838,"eccentricity":0.0001198,"inclination_deg":42.9993,"raan_deg":204.8543,"arg_perigee_deg":266.9258,"mean_anomaly_deg":93.1473,"bstar":0.001337,"rev_number":7591,"period_min":91.666708150096,"perigee_km":355.49284031281,"apogee_km":357.10641132836,"semimajor_km":6734.4366258206,"source":"CELESTRAK","updated_at":"2026-05-25T13:38:19.779446Z"}}}